Theta_e
297 297 297 297 298 295 295 295 293 292 292 293 290 288 288 288 288 288 287 287 287 287 288 288 288 288 288 287 288 289 289 290 291 290 287 287 288 289 292 296 297 297 297 294
297 296 297 296 297 294 295 295 294 291 292 290 290 289 288 287 287 287 287 286 287 286 286 287 288 288 287 287 288 289 289 291 292 291 289 288 289 288 286 288 291 295 296 294
296 296 296 294 296 293 294 294 294 293 292 290 290 289 289 288 288 288 287 287 287 287 287 287 287 286 286 287 287 288 289 289 289 290 289 289 290 288 287 286 293 291 289 290
296 296 295 292 292 293 295 294 292 291 290 290 289 291 290 289 289 289 288 288 287 286 287 286 285 286 286 286 286 286 288 288 288 288 288 287 287 287 286 285 283 289 285 285
295 295 292 291 292 292 293 295 293 292 291 291 291 291 289 289 288 288 288 287 287 287 286 285 285 286 286 286 286 285 286 289 288 287 288 287 287 286 285 285 284 286 286 288
295 295 291 291 291 293 293 292 292 292 290 290 291 289 289 288 289 287 287 287 288 286 285 285 285 286 286 285 285 285 285 287 287 289 287 287 288 285 285 285 285 283 285 286
294 293 291 291 291 292 292 291 292 293 290 290 289 288 288 287 287 287 287 287 287 285 285 286 286 286 285 286 285 284 285 286 286 287 286 288 285 284 285 284 284 284 285 285
294 292 290 290 289 290 291 291 292 292 290 289 288 288 287 288 287 287 287 286 285 285 285 287 288 286 285 285 285 285 284 285 287 288 287 286 286 285 284 284 284 283 283 283
293 292 289 289 289 288 289 287 289 291 293 289 285 288 288 289 289 289 287 286 285 285 287 288 288 287 285 286 286 285 285 284 287 287 287 287 285 284 284 284 285 280 280 280
293 292 290 289 288 288 288 287 287 290 290 286 287 288 287 287 288 289 287 287 287 287 289 288 288 288 284 286 286 285 285 286 286 286 286 286 283 283 283 284 282 279 278 278
293 292 290 289 288 288 288 287 286 289 288 285 285 284 285 286 286 288 287 288 287 288 289 289 287 288 285 285 283 283 284 284 286 285 285 286 282 284 284 279 277 276 277 277
293 291 290 289 288 288 288 288 286 287 288 286 284 283 282 282 283 284 286 286 286 286 289 288 287 287 286 284 287 280 285 281 283 283 285 281 280 280 278 276 274 275 275 274
293 292 291 289 288 288 288 287 286 287 287 286 286 285 283 282 281 282 286 286 284 285 283 287 286 286 285 286 285 284 281 277 282 281 280 278 279 279 276 274 273 272 272 271
293 292 291 289 288 287 288 288 287 287 288 290 286 283 284 282 281 282 283 283 282 282 284 286 286 286 282 284 281 280 278 278 277 279 280 277 279 278 273 271 270 269 269 269
292 290 291 290 287 287 287 287 286 286 289 290 287 284 283 282 282 281 282 283 284 285 286 286 285 283 283 280 280 278 277 274 275 277 276 275 275 271 271 268 267 267 267 267
292 290 288 290 289 289 289 289 287 286 285 289 289 284 284 283 282 282 280 280 281 283 285 283 280 273 280 284 281 276 275 273 273 273 271 269 269 270 268 267 266 266 267 266
292 290 289 288 290 289 288 289 287 286 285 290 287 287 283 282 282 282 283 280 281 283 282 282 282 281 281 281 280 276 273 272 271 270 267 268 268 267 265 265 265 265 265 265
292 291 290 288 287 287 287 287 285 286 285 286 289 288 285 282 285 285 280 284 282 280 281 280 281 279 280 278 275 273 271 269 268 268 266 266 266 265 265 265 265 265 265 265
292 291 290 289 288 287 287 287 285 285 285 288 288 287 287 283 283 282 283 281 285 279 282 280 279 279 278 275 272 270 269 268 267 266 265 264 264 265 265 266 266 266 266 266
292 291 290 291 288 287 286 285 287 286 285 286 287 283 286 283 283 283 283 282 282 285 279 277 281 278 274 272 270 268 267 266 265 265 265 265 265 265 265 265 265 265 266 266
291 291 291 287 285 285 285 288 288 286 287 284 283 282 283 281 283 283 279 281 281 284 281 281 281 280 275 271 268 267 266 265 265 265 265 265 265 265 265 265 265 265 265 265
290 289 286 285 285 287 289 286 285 286 287 283 284 283 282 281 280 281 279 282 280 285 277 281 283 277 272 269 267 266 266 266 266 265 265 265 265 264 264 264 264 264 264 264
288 287 287 287 287 289 289 289 289 289 284 283 283 283 281 281 280 279 280 283 284 275 281 283 280 274 272 268 267 267 266 266 265 265 264 264 264 264 264 264 263 263 263 264
290 290 289 289 290 289 289 288 288 283 283 282 281 281 282 280 281 279 283 278 276 282 282 282 278 272 269 267 266 266 265 265 264 264 264 263 263 263 263 263 263 263 264 265
290 288 291 288 285 284 283 281 282 280 280 280 280 280 279 281 281 279 279 279 281 280 282 279 276 270 265 266 266 265 264 264 263 263 263 263 263 263 263 262 263 263 263 264
286 285 287 283 286 285 282 282 283 279 279 278 279 281 281 281 279 280 281 281 282 282 279 276 273 269 266 266 265 264 264 263 263 263 263 263 262 263 262 263 263 263 263 263
286 287 284 285 285 287 284 282 281 278 279 283 280 282 282 274 279 280 278 281 281 279 276 274 269 267 266 264 264 264 263 263 263 263 262 262 263 262 263 263 263 263 263 263
Wind_Speed
34 36 35 37 34 28 20 19 12 32 19 12 7 12 8 5 12 8 9 10 10 10 7 7 4 6 6 7 7 5 5 3 2 4 2 1 2 6 5 4 4 0 3 3
33 34 34 34 31 24 6 10 11 29 22 12 12 12 11 16 15 15 7 10 9 8 5 3 5 4 5 7 8 7 8 2 2 5 3 4 4 6 4 6 3 1 4 4
31 32 33 32 28 17 11 4 4 8 10 13 12 11 14 7 12 14 10 10 6 3 8 8 5 4 5 4 8 6 3 3 5 6 6 4 5 10 8 3 3 7 5 5
28 30 31 28 25 14 4 5 5 4 8 11 12 16 12 15 8 10 14 9 15 5 4 5 5 6 2 2 7 3 3 2 4 5 6 6 7 8 10 8 4 5 8 5
26 28 29 28 17 18 13 3 4 7 9 11 14 10 11 12 9 9 7 9 11 12 7 6 5 6 7 6 6 3 3 2 2 3 4 6 11 13 10 8 9 3 8 4
24 25 25 24 22 11 7 7 4 3 8 10 6 9 11 11 3 8 7 8 5 8 7 5 4 4 4 4 6 6 4 3 3 4 3 5 3 9 10 10 11 4 8 12
21 23 21 20 20 16 9 4 3 3 7 7 7 7 6 8 9 5 8 9 6 3 0 1 2 3 3 4 6 6 5 2 2 2 4 4 5 4 7 12 11 13 13 13
18 20 18 16 16 13 13 6 3 2 4 3 7 10 8 2 2 5 5 6 3 1 2 2 3 4 4 3 5 7 7 3 1 3 4 5 5 3 3 4 6 11 14 14
15 17 16 13 10 12 12 12 7 3 1 7 5 6 5 4 6 2 5 2 1 2 2 2 3 4 3 3 4 2 3 3 3 3 3 2 6 7 6 4 4 14 15 14
11 11 15 12 10 11 9 8 8 5 4 3 6 3 3 5 3 3 1 5 4 2 2 2 3 3 2 3 5 6 5 4 5 5 2 4 9 11 4 5 5 14 15 15
9 9 10 11 8 7 7 9 8 3 3 3 5 4 3 2 3 4 6 3 1 3 2 3 2 3 3 1 2 2 4 4 4 3 2 1 16 3 5 5 10 13 15 14
8 7 7 8 4 3 5 5 10 10 7 4 3 5 4 2 3 3 3 2 2 3 2 2 1 1 1 1 1 1 0 4 4 3 4 7 12 7 6 11 11 14 13 14
7 5 8 6 5 5 7 10 8 5 4 3 3 1 1 3 3 3 3 2 1 2 2 3 2 2 3 2 4 2 3 5 3 7 5 13 5 4 11 13 11 12 12 14
6 2 5 3 4 4 2 2 3 2 1 1 2 1 1 3 5 1 3 1 1 1 1 1 1 1 2 3 3 5 4 6 9 8 2 14 7 10 15 11 12 12 16 15
4 2 3 2 5 9 8 9 6 2 0 1 3 3 1 2 3 5 2 1 2 1 1 1 2 1 1 2 3 3 3 2 4 5 13 10 13 15 16 14 14 15 14 16
6 3 5 8 4 2 3 2 4 5 3 2 2 2 2 3 1 4 6 4 2 2 1 2 2 1 2 2 2 4 3 3 6 8 13 10 14 12 16 15 16 20 20 20
6 3 1 3 7 2 1 2 3 3 2 1 2 2 2 2 1 1 1 2 2 2 2 1 1 2 2 1 2 4 5 7 8 4 8 7 4 11 20 17 20 21 21 20
6 4 1 1 3 1 1 4 7 2 3 2 0 1 2 4 1 0 3 0 1 3 2 2 1 2 1 2 2 4 8 10 6 6 9 12 16 16 15 19 18 15 11 18
5 5 2 4 2 2 1 1 3 8 4 1 2 3 3 3 1 1 1 1 1 0 1 2 2 2 2 2 2 6 7 6 10 11 11 7 7 10 12 15 15 12 12 18
6 3 2 2 2 1 3 1 0 2 4 3 2 1 2 3 3 1 2 1 1 2 2 1 2 1 4 3 2 4 5 5 8 10 10 12 12 13 14 14 19 20 20 22
2 3 1 1 1 2 1 1 1 2 1 2 2 2 3 2 2 2 2 1 0 2 2 2 2 2 3 2 3 5 6 7 8 11 14 15 16 13 13 16 20 20 21 22
3 2 2 1 1 1 0 1 0 1 1 1 2 2 2 1 1 2 1 1 1 1 1 2 2 3 2 2 4 7 7 8 10 11 13 14 15 16 17 19 20 20 22 22
2 1 1 1 1 1 1 2 1 1 2 1 2 1 2 2 1 0 2 2 0 0 2 1 1 3 1 2 4 6 8 9 10 12 13 14 15 15 16 19 18 19 20 19
1 1 2 1 1 1 1 0 1 2 1 1 2 1 2 1 2 1 2 2 1 2 2 1 1 2 1 3 5 6 8 10 11 12 13 13 14 16 17 16 16 17 17 19
1 1 3 2 2 2 2 1 1 2 2 1 1 1 2 0 2 1 1 2 2 1 1 2 3 2 1 3 5 5 7 9 10 12 13 14 15 15 17 16 17 16 16 17
1 1 2 1 1 2 2 2 1 3 2 2 1 1 1 2 1 2 1 2 2 1 0 2 1 1 1 2 5 6 8 8 10 11 12 13 14 15 16 16 17 17 16 16
2 1 0 1 1 2 2 2 3 4 2 0 1 2 1 1 1 2 2 2 1 1 1 1 2 1 1 3 4 5 7 8 10 11 11 11 13 14 13 15 18 18 16 15
Wind_Direction
5 2 2 1 1 7 32 43 57 357 47 65 58 57 36 27 31 35 47 40 45 38 26 39 64 67 42 5 347 3 35 320 342 38 104 41 33 6 331 294 21 220 286 87
6 4 5 2 5 15 3 63 58 34 36 59 68 76 74 50 43 37 34 37 39 35 38 58 50 56 27 10 8 13 356 99 239 163 175 187 48 30 334 285 256 312 316 61
7 8 9 7 8 27 33 46 46 42 40 51 61 58 43 67 40 49 47 37 39 27 47 46 50 39 33 14 5 5 309 357 15 22 30 336 27 21 4 316 303 335 42 350
9 12 16 17 23 30 35 44 56 21 39 42 61 63 58 54 35 46 21 37 29 24 37 54 38 22 19 75 15 30 5 57 53 69 82 77 58 35 37 41 359 8 351 351
12 13 22 22 30 37 55 83 91 68 66 56 56 49 45 44 32 20 25 35 29 40 59 37 359 355 22 30 336 32 360 91 183 107 122 91 65 32 31 34 4 358 321 88
16 18 25 25 30 40 67 60 35 85 44 44 54 32 43 41 16 47 38 4 4 41 33 19 37 50 59 47 11 8 4 339 277 110 174 207 111 18 52 63 44 337 11 330
19 21 26 28 38 59 89 57 40 73 73 64 48 26 38 31 42 43 36 21 38 38 146 184 164 104 88 52 42 23 342 344 312 65 199 225 100 92 102 82 45 27 26 25
22 23 30 35 45 62 78 46 41 63 84 21 39 13 358 28 89 46 38 37 25 306 235 260 250 192 205 46 36 23 18 298 0 290 36 109 151 55 350 339 67 27 6 5
22 27 32 38 49 63 72 54 51 65 67 32 324 331 10 348 350 177 53 66 354 253 274 246 338 33 326 349 355 30 353 180 295 353 319 345 40 355 326 261 189 14 1 354
22 28 29 35 46 64 79 60 61 75 96 43 343 23 346 328 333 282 28 349 348 259 308 35 5 61 327 350 3 346 348 352 7 355 354 113 6 335 339 220 38 357 351 344
16 27 27 27 39 56 88 65 59 82 86 68 44 36 11 329 349 344 2 259 90 347 34 348 50 349 53 229 54 16 343 319 23 293 302 182 7 349 335 27 360 342 336 328
358 1 11 13 15 94 68 86 80 80 78 98 119 97 72 15 303 310 333 41 27 16 298 50 271 89 204 351 82 153 210 7 321 350 18 25 351 92 71 26 343 337 328 327
333 318 342 7 32 133 93 112 103 77 112 141 192 53 101 359 345 278 298 104 3 95 343 0 43 68 305 339 59 271 98 14 337 323 50 351 3 90 16 356 345 338 326 323
330 328 316 358 70 201 299 105 101 96 164 167 110 22 42 350 14 289 266 297 84 86 296 15 17 29 353 58 70 60 1 348 327 286 340 342 197 358 357 347 341 329 322 316
300 301 254 239 131 100 70 65 58 91 70 21 136 148 80 24 34 56 63 183 278 335 185 6 66 83 225 84 116 92 19 17 329 290 328 310 302 336 336 342 334 329 321 315
273 286 16 207 237 265 351 208 28 38 92 182 176 101 136 42 115 68 58 60 45 31 25 92 101 109 297 242 82 130 119 331 278 285 325 307 297 317 340 324 317 314 313 313
241 257 22 86 193 220 359 28 330 356 92 227 148 198 144 13 166 106 80 65 68 16 105 80 96 110 307 46 75 16 337 326 317 311 350 296 345 312 318 310 310 308 307 307
208 198 208 121 125 118 53 25 22 114 96 23 301 31 187 6 26 340 360 32 156 32 89 152 74 139 76 126 3 335 333 324 304 338 323 290 298 304 309 310 310 314 315 311
196 209 239 280 241 213 178 317 74 51 63 94 41 350 350 343 81 339 179 321 171 120 118 82 260 162 184 96 330 320 328 320 304 315 303 285 293 310 315 321 326 320 318 325
189 231 247 228 194 273 129 33 173 41 21 21 76 352 321 337 349 91 309 3 78 214 74 272 236 138 105 134 21 303 305 304 307 309 322 324 325 326 326 329 326 326 323 325
206 217 234 196 116 122 48 91 24 11 78 36 50 358 323 55 312 350 28 349 343 242 99 273 180 213 154 148 312 308 301 298 294 289 301 312 315 318 324 322 328 327 324 323
213 184 127 99 44 124 116 37 216 15 15 95 320 16 326 66 306 278 98 301 234 273 354 248 236 112 145 309 309 313 319 314 313 318 315 316 316 321 319 320 324 324 323 322
154 107 104 330 27 72 238 326 104 301 156 67 359 331 336 187 184 113 274 255 64 266 220 275 23 115 345 319 311 319 326 324 322 322 320 321 322 325 323 323 324 323 322 324
221 207 265 253 168 202 159 225 72 87 98 19 351 281 312 351 250 322 277 59 263 249 252 319 128 27 315 320 316 318 325 329 326 322 323 324 327 325 325 330 328 321 325 325
209 195 242 191 92 84 77 81 164 113 84 100 181 197 262 195 261 284 300 240 260 258 321 354 352 61 13 307 325 323 318 320 319 321 322 321 325 325 325 331 325 330 325 333
144 134 141 111 190 158 195 192 150 132 111 130 206 272 245 225 285 236 226 283 272 22 268 351 94 155 245 300 312 314 315 314 316 318 319 323 327 328 324 325 336 336 328 331
171 163 61 139 48 83 129 139 115 135 159 11 155 240 264 79 231 239 202 235 358 12 353 93 104 151 288 299 302 310 311 317 323 324 327 326 327 329 329 335 341 337 337 334